Location: Chillicothe
(39.7950°N, 93.5520°W)
Time: 07:59:36
(UTC-05:00)

Vanguard 1 - Visible Passes

Search period start: 17 October 2019 00:00
Search period end: 27 October 2019 00:00
Orbit: 653 x 3830 km, 34.2° (Epoch: 17 October)

Date Brightness Start Highest point End Pass type
(mag) Time Alt. Az. Time Alt. Az. Time Alt. Az.
17 Oct 13.8 02:09:18 21° SE 02:09:18 21° SE 02:14:37 10° SE visible
17 Oct 13.4 04:22:03 27° SSW 04:22:03 27° SSW 04:34:27 10° S visible
17 Oct 11.9 18:57:26 10° SSW 19:03:51 29° SE 19:14:10 10° E visible
17 Oct 11.6 21:14:52 10° WSW 21:24:26 64° SSE 21:26:57 57° SE visible
17 Oct 12.8 23:34:48 10° W 23:39:39 32° W 23:39:39 32° W visible
18 Oct 13.8 02:29:36 21° SSE 02:29:36 21° SSE 02:35:11 10° SE visible
18 Oct 13.6 04:42:21 21° SSW 04:42:21 21° SSW 04:52:52 10° S visible
18 Oct 11.7 19:17:28 10° SSW 19:24:20 38° SE 19:33:49 15° E visible
18 Oct 11.6 21:35:39 10° WSW 21:45:33 69° S 21:46:31 67° SSE visible
18 Oct 13.0 23:55:51 10° W 00:37:04 - ESE 23:59:11 24° W visible
19 Oct 13.8 02:49:49 21° SSE 02:49:49 21° SSE 02:55:23 10° SSE visible
19 Oct 13.8 05:02:34 15° SW 05:02:34 15° SW 05:09:48 10° SSW visible
19 Oct 11.5 19:37:48 10° SW 19:44:59 46° SSE 19:53:21 21° E visible
19 Oct 11.7 21:56:31 10° WSW 22:06:02 69° SSW 22:06:02 69° SSW visible
20 Oct 13.3 00:16:56 10° W 00:57:13 - ESE 00:18:44 17° W visible
20 Oct 13.8 03:09:57 19° S 03:09:57 19° S 03:15:07 10° SSE visible
20 Oct 11.4 19:58:19 10° SW 20:05:47 55° SSE 20:12:53 28° E visible
20 Oct 11.8 22:17:25 10° W 22:25:34 61° SW 22:25:34 61° SW visible
21 Oct 13.5 00:38:05 10° W 01:17:16 - SE 00:38:15 11° W visible
21 Oct 13.9 03:30:00 16° S 03:30:00 16° S 03:34:15 10° S visible
21 Oct 11.3 20:18:58 10° WSW 20:26:43 61° SSE 20:32:24 36° ESE visible
21 Oct 12.1 22:38:21 10° W 22:45:06 49° WSW 22:45:06 49° WSW visible
22 Oct13.801:37:15SE01:37:15SE00:57:47Wvisible
22 Oct 14.0 03:49:58 13° S 03:49:58 13° S 03:52:28 10° S visible
22 Oct 11.3 20:39:43 10° WSW 20:47:45 65° S 20:51:56 45° ESE visible
22 Oct 12.4 22:59:21 10° W 23:04:37 37° WSW 23:04:37 37° WSW visible
23 Oct 11.2 18:42:07 10° SW 18:47:58 42° SSE 18:57:53 10° E visible
23 Oct 11.3 21:00:33 10° WSW 21:08:51 67° S 21:11:28 56° SE visible
23 Oct 12.8 23:20:22 10° W 23:24:10 27° W 23:24:10 27° W visible
24 Oct 11.1 19:02:38 10° SW 19:08:43 50° SSE 19:18:20 13° E visible
24 Oct 11.4 21:21:25 10° W 21:29:59 66° S 21:31:02 64° SSE visible
24 Oct 13.1 23:41:29 10° W 23:43:43 19° W 23:43:43 19° W visible
25 Oct 11.0 19:23:17 10° WSW 19:29:35 57° SSE 19:37:54 18° E visible
25 Oct 11.5 21:42:19 10° W 21:50:36 62° SSW 21:50:36 62° SSW visible
26 Oct 13.4 00:02:43 10° W 00:03:17 12° W 00:03:17 12° W visible
26 Oct 11.0 19:44:02 10° WSW 19:50:33 61° S 19:57:29 25° ESE visible
26 Oct 11.8 22:03:15 10° W 22:10:10 51° SW 22:10:10 51° SW visible
